This is the latest recevied weather packets stored in our database for station/object N6GPM. If no packets are shown the sender has not sent any weather packets the latest 10 day(s).
| Time | Temp. | Humidity | Pressure | Rain* | Wind** | Luminosity | Snow |
|---|---|---|---|---|---|---|---|
| 1787760764 | 32.22° C | 36% | 1018 hPa | 0 mm | - | 539 W/m² | - |
| 1787760464 | 32.22° C | 37% | 1017.8 hPa | 0 mm | - | 523 W/m² | - |
| 1787760158 | 32.22° C | 36% | 1018.1 hPa | 0 mm | - | 500 W/m² | - |
| 1787759855 | 32.22° C | 36% | 1017.9 hPa | 0 mm | - | 464 W/m² | - |
| 1787759551 | 32.22° C | 37% | 1017.8 hPa | 0 mm | - | 458 W/m² | - |
| 1787759247 | 31.67° C | 38% | 1017.9 hPa | 0 mm | - | 437 W/m² | - |
| 1787758946 | 31.11° C | 39% | 1017.6 hPa | 0 mm | - | 416 W/m² | - |
| 1787758641 | 31.11° C | 39% | 1017.7 hPa | 0 mm | - | 392 W/m² | - |
| 1787758340 | 31.11° C | 40% | 1017.7 hPa | 0 mm | - | 375 W/m² | - |
| 1787758035 | 30.56° C | 40% | 1017.7 hPa | 0 mm | - | 352 W/m² | - |
| 1787757732 | 30° C | 40% | 1017.7 hPa | 0 mm | - | 332 W/m² | - |
| 1787757431 | 30° C | 41% | 1017.7 hPa | 0 mm | - | 308 W/m² | - |
| 1787757126 | 30° C | 42% | 1017.6 hPa | 0 mm | - | 292 W/m² | - |
| 1787756824 | 29.44° C | 43% | 1017.5 hPa | 0 mm | - | 271 W/m² | - |
| 1787756515 | 29.44° C | 44% | 1017.8 hPa | 0 mm | - | 251 W/m² | - |
| 1787756214 | 28.89° C | 46% | 1017.5 hPa | 0 mm | - | 226 W/m² | - |
| 1787755909 | 27.78° C | 47% | 1017.5 hPa | 0 mm | - | 211 W/m² | - |
| 1787755609 | 27.22° C | 49% | 1017.5 hPa | 0 mm | - | 191 W/m² | - |
| 1787755309 | 27.22° C | 50% | 1017.6 hPa | 0 mm | - | 172 W/m² | - |
| 1787755008 | 26.67° C | 51% | 1017.6 hPa | 0 mm | - | 152 W/m² | - |
| 1787754708 | 26.67° C | 52% | 1017.5 hPa | 0 mm | - | 138 W/m² | - |
| 1787754405 | 26.11° C | 52% | 1017.7 hPa | 0 mm | - | 123 W/m² | - |
| 1787754100 | 26.11° C | 52% | 1017.4 hPa | 0 mm | - | 102 W/m² | - |
| 1787753795 | 26.11° C | 51% | 1017.3 hPa | 0 mm | - | 91 W/m² | - |
| 1787753492 | 25.56° C | 52% | 1017.2 hPa | 0 mm | - | 79 W/m² | - |
* Rain latest hour (hover to see other rain measurements)
** Current wind speed in m/s (hover to see current wind gust speed)